Location: Holmbach
(49.5093°N, 8.8411°E)
Time: 20:22:00
(UTC+00:00)

Cosmos 1954 Rocket - Pass Details

Date: 17 June 2025
Orbit: 749 x 776 km, 74.0° (Epoch: 16 July)

Event Time Altitude Azimuth Distance (km) Brightness Sun altitude
Exits shadow 22:52:59 25° 200° (SSW) 1,519 5.0 -16.7°
Maximum altitude 22:56:08 87° 114° (ESE) 767 3.9 -16.8°
Drops below altitude 10° 23:01:21 10° 24° (NNE) 2,292 7.4 -16.9°
Sets 23:03:43 0° 24° (NNE) 3,218 8.3 -16.9°
